Weather Roundup
Issued by NWS Chicago, IL

Home | Current Version | Previous Version | Graphics & Text | Print | Product List | Glossary On
Versions: 1 2 3 4 5 6 7 8 9 10 11 12 13 14 15 16 17 18 19 20 21 22 23 24 25 26 27 28 29 30 31 32 33 34 35 36 37 38 39 40 41 42 43 44 45 46 47 48 49 50
000
NZUS59 KLOT 150703
HRRLOT

CHICAGO AREA WEATHER ROUNDUP
NATIONAL WEATHER SERVICE CHICAGO/ROMEOVILLE IL
100 AM CST FRI DEC 15 2017

NOTE: "FAIR" INDICATES FEW OR NO CLOUDS BELOW 12,000 FEET WITH NO
SIGNIFICANT WEATHER AND/OR OBSTRUCTIONS TO VISIBILITY.

* THESE STATIONS ARE NOT UNDER NWS QUALITY CONTROL. THEY ALSO MAY NOT
  REPORT WEATHER SUCH AS PRECIPITATION OR FOG.

ILZ005-006-012>014-019>023-150800-
NORTHEAST ILLINOIS

CITY           SKY/WX    TMP DP  RH WIND       PRES   REMARKS
OHARE          CLOUDY    22  12  65 SW6       29.99F WCI  14
MIDWAY         CLOUDY    22  13  68 SW6       30.00F WCI  14
AURORA         CLOUDY    21  14  74 SW6       30.00F WCI  13
LANSING*       CLOUDY    16  13  88 S3        30.01F
JOLIET*        CLOUDY    21  16  79 CALM      30.02F
WAUKEGAN       CLOUDY    22  13  68 SW8       29.96F WCI  12
DUPAGE AIRPORT CLOUDY    20  14  77 SW7       29.98F WCI  11
WHEELING       CLOUDY    24  14  65 W6        30.00F WCI  17
KANKAKEE*      CLOUDY    16  11  79 CALM      30.03F
MORRIS*        CLOUDY    20  14  76 SW5       30.01F WCI  14
LEWIS AIRPORT* CLOUDY    20  14  78 SW5       30.01S WCI  14
NORTHERLY ISL    N/A     23  11  60 SW5         N/A  WCI  17
$$

WIZ051-052-058>065-066-070>072-150800-
SOUTHEAST WISCONSIN

CITY           SKY/WX    TMP DP  RH WIND       PRES   REMARKS
MILWAUKEE      CLOUDY    22  14  71 S9        29.94F WCI  12
KENOSHA*       CLOUDY    23  13  65 SW9       29.95F WCI  13
RACINE*        CLOUDY    22  14  71 SW10      29.96F WCI  11
WEST BEND      CLOUDY    21  16  79 SW5       29.90F WCI  15
$$

INZ001>003-010>013-019-020-150800-
NORTHWEST INDIANA

CITY           SKY/WX    TMP DP  RH WIND       PRES   REMARKS
GARY*          CLOUDY    21  13  71 CALM      30.02F
MICHIGAN CITY* NOT AVBL
RENSSELAER*    NOT AVBL
VALPARAISO     CLEAR     15  10  80 CALM      30.00F
$$

LMZ740>746-150800-
SOUTHERN LAKE MICHIGAN

STATION/POSITION TIME  SKY/WX   TEMP WIND        PRES    VSBY
                                AIR  DIR/SP/G
                 (UTC)          (F)  (DEG/KT/KT) (MB)    (MI)
HARRISON CRIB    0640            25  240/ 11/ 15   N/A
BURNHAM HARBOR   0700            24  230/  4/  8   N/A
CALUMET HARBOR   0630            22  210/  5/  6 1015.5F
BURNS HARBOR     0640            22  210/  7/  8 1016.6F
MICHIGAN CITY    0640            22  190/ 12/ 13   N/A
$$

ABBREVIATIONS USED IN REMARKS
   TC - TEMPERATURE IN CELSIUS
  WCI - WIND CHILL INDEX
   HX - HEAT INDEX
  VSB - VISIBILITY
$$



USA.gov is the U.S. government's official web portal to all federal, state and local government web resources and services.